Flag for Equatorial Guinea Weather past 2 weeks in Malabo, Equatorial Guinea

Now
73 °F

Passing clouds.


Feels Like: 70 °F
Forecast: 75 / 80 °F
Wind: 3 mph from Southwest

Location: Malabo/Fernando Poo

Current Time: Jul 31, 2014 at 5:21:37 AM

Latest Report: Jul 31, 2014 at 4:00 AM


Visibility: N/A

Pressure: 29.98 "Hg

Humidity: 94%

Dew point: 72 °F

Location of MalaboLocation

Historic Weather in Malabo — Graph

°F

Malabo temperature yesterday

Maximum temperature yesterday: 81 °F (at 4:00 PM)
Minimum temperature yesterday: 73 °F (at 8:00 AM)
Average temperature yesterday: 76 °F

Past Weeks' High & Low Weather Summary

 TemperatureHumidityPressure
High84 °F (Jul 17, 12:00 PM)94% (Jul 16, 4:00 AM)30.07 "Hg (Jul 16, 4:00 AM)
Low72 °F (Jul 16, 4:00 AM)66% (Jul 17, 12:00 PM)29.89 "Hg (Jul 26, 4:00 PM)
Average77 °F85%29.98 "Hg
* Reported Jul 16 4:00 AM — Jul 31 4:00 AM, Malabo, Weather by CustomWeather, © 2014

Note: Actual official high and low records may vary slightly from our data, if they occured in-between our weather recording intervals... More about our weather records

Advertising

Malabo weather history for previous 24 hours

 ConditionsComfort  
Time TempWeatherWind HumidityBarometerVisibility
4:00 AM
Jul 31
73 °FPassing clouds.3 mph94%29.98 "HgN/A
3:00 AM73 °FPassing clouds.5 mph94%29.98 "HgN/A
2:00 AM73 °FPassing clouds.3 mph94%29.98 "HgN/A
1:00 AM73 °FPassing clouds.5 mph94%29.98 "HgN/A
12:00 AM73 °FPassing clouds.No wind94%30.01 "HgN/A
11:00 PM
Jul 30
75 °FPassing clouds.1 mph89%30.01 "HgN/A
10:00 PM75 °FPassing clouds.No wind94%29.98 "HgN/A
9:00 PM75 °FPassing clouds.No wind94%29.95 "HgN/A
8:00 PM75 °FPassing clouds.No wind89%29.95 "HgN/A
7:00 PM79 °FPassing clouds.No wind79%29.92 "HgN/A
6:00 PM79 °FPassing clouds.3 mph79%29.92 "HgN/A
5:00 PM81 °FPassing clouds.7 mph79%29.92 "HgN/A
4:00 PM81 °FPassing clouds.7 mph74%29.92 "HgN/A
3:00 PM79 °FPassing clouds.7 mph79%29.95 "HgN/A
2:00 PM79 °FPartly sunny.9 mph89%29.95 "HgN/A
1:00 PM75 °FDrizzle. Partly sunny.2 mph83%29.98 "Hg5 mi
12:30 PM73 °FDrizzle. Partly sunny.No wind94%29.98 "Hg5 mi
12:00 PM73 °FPartly sunny.5 mph94%29.98 "Hg4 mi
11:30 AM73 °FBroken clouds.5 mph94%30.01 "Hg2 mi
10:00 AM73 °FThunderstorms. Broken clouds.1 mph94%30.01 "Hg3 mi
9:00 AM73 °FThunderstorms. Partly sunny.10 mph94%29.98 "Hg2 mi
8:30 AM73 °FThunderstorms. Partly sunny.9 mph94%29.98 "Hg2 mi
8:00 AM73 °FThunderstorms. Partly sunny.16 mph94%30.01 "Hg2 mi
7:00 AM75 °FPassing clouds.No wind94%29.95 "Hg4 mi
Weather by CustomWeather, © 2014

See weather overviewHow to use our weather pages